This is the latest recevied weather packets stored in our database for station/object W4TTU-1. If no packets are shown the sender has not sent any weather packets the latest 10 day(s).
| Time | Temp. | Humidity | Pressure | Rain* | Wind** | Luminosity | Snow |
|---|---|---|---|---|---|---|---|
| 1777517013 | 9.44° C | 39% | 851.9 hPa | 0.25 mm | - | - | - |
| 1777516112 | 10° C | 39% | 851.7 hPa | 0.25 mm | - | - | - |
| 1777515212 | 10.56° C | 39% | 851.4 hPa | 0.25 mm | - | - | - |
| 1777514311 | 11.11° C | 39% | 851.4 hPa | 0.25 mm | - | - | - |
| 1777513411 | 11.11° C | 39% | 851.4 hPa | 0.25 mm | - | - | - |
| 1777512510 | 11.67° C | 39% | 851.2 hPa | 0.25 mm | - | - | - |
| 1777511610 | 12.22° C | 40% | 851.1 hPa | 0.25 mm | - | - | - |
| 1777510709 | 12.78° C | 40% | 851 hPa | 0.25 mm | - | - | - |
| 1777509809 | 13.33° C | 39% | 850.9 hPa | 0.25 mm | - | - | - |
| 1777508908 | 13.89° C | 40% | 850.8 hPa | 0.25 mm | - | - | - |
| 1777508008 | 14.44° C | 39% | 850.9 hPa | 0.25 mm | - | - | - |
| 1777507107 | 15° C | 39% | 851.1 hPa | 0.25 mm | - | - | - |
| 1777506207 | 15.56° C | 40% | 850.9 hPa | 0.25 mm | - | - | - |
| 1777505306 | 15.56° C | 41% | 850.8 hPa | 0.25 mm | - | - | - |
| 1777504406 | 15° C | 42% | 850.8 hPa | 0.25 mm | - | - | - |
| 1777503505 | 14.44° C | 41% | 850.8 hPa | 0.25 mm | - | - | - |
| 1777502605 | 14.44° C | 40% | 851 hPa | 0.25 mm | - | - | - |
| 1777501704 | 14.44° C | 40% | 850.9 hPa | 0.25 mm | - | - | - |
| 1777500804 | 14.44° C | 40% | 851 hPa | 0.25 mm | - | - | - |
| 1777499903 | 15° C | 39% | 851 hPa | 0.25 mm | - | - | - |
| 1777499002 | 15.56° C | 39% | 851 hPa | 0.25 mm | - | - | - |
| 1777498102 | 16.11° C | 40% | 851.1 hPa | 0.25 mm | - | - | - |
| 1777497201 | 16.67° C | 39% | 850.8 hPa | 0.25 mm | - | - | - |
| 1777496301 | 16.67° C | 39% | 850.8 hPa | 0.25 mm | - | - | - |
| 1777495400 | 16.67° C | 40% | 850.8 hPa | 0.25 mm | - | - | - |
* Rain since midnight (hover to see other rain measurements)
** Current wind speed in m/s (hover to see current wind gust speed)